User: anonymous   Login
Location: Unspecified
(0.0000°N, 0.0000°E)
Time: 00:27:20
(UTC+00:00)
Language:

CORIOLIS - Orbit

View from above orbital plane
View from above orbital plane
View from above satellite
View from above satellite

Ground track
Ground track

The orbit data is extracted from the following two-line orbital elements,

1 27640U 03001A   17085.87401347 +.00000017 +00000-0 +28961-4 0  9996
2 27640 098.7458 097.2055 0014097 179.4610 247.6425 14.18936638736273
Epoch (UTC): 26 March 2017 20:58:34
Eccentricity: 0.0014097
inclination: 98.7458°
perigee height: 819 km
apogee height: 839 km
right ascension of ascending node: 97.2055°
argument of perigee: 179.4610°
revolutions per day: 14.18936638
mean anomaly at epoch: 247.6425°
orbit number at epoch: 73627

The dashed part of the orbit path shows where the satellite is in the earth's shadow,  

DLR